| time (UTC) | temp F | wind direction | speed MPH | gust MPH | rain 1hr in | rain 24hr in | rain mn in | humidity % | barometer mb |
| 20260505113621 | 59 | 344 | 4.0 | 5.0 | 0.01 | 0.20 | 0.20 | 99 | 1007.5 |
| 20260505112622 | 59 | 313 | 5.0 | 6.0 | 0.01 | 0.20 | 0.20 | 99 | 1007.5 |
| 20260505111617 | 59 | 338 | 4.0 | 6.0 | 0.01 | 0.20 | 0.20 | 99 | 1006.6 |
| 20260505110645 | 59 | 158 | 1.0 | 3.0 | 0.01 | 0.20 | 0.20 | 99 | 1006.5 |
| 20260505101624 | 59 | 1.0 | 4.0 | 0.03 | 0.19 | 0.19 | 99 | 1007.1 | |
| 20260505100626 | 59 | 113 | 3.0 | 3.0 | 0.05 | 0.19 | 0.19 | 99 | 1007.3 |
| 20260505095627 | 59 | 128 | 2.0 | 3.0 | 0.06 | 0.19 | 0.19 | 99 | 1007.3 |
| 20260505094628 | 59 | 158 | 2.0 | 2.0 | 0.08 | 0.19 | 0.19 | 99 | 1007.4 |
| 20260505093629 | 59 | 0.0 | 0.0 | 0.09 | 0.18 | 0.18 | 99 | 1008.2 | |
| 20260505092624 | 59 | 0.0 | 0.0 | 0.13 | 0.18 | 0.18 | 99 | 1008.0 | |
| 20260505091621 | 60 | 126 | 2.0 | 2.0 | 0.14 | 0.16 | 0.16 | 99 | 1008.2 |
| 20260505090627 | 59 | 268 | 2.0 | 3.0 | 0.13 | 0.14 | 0.14 | 99 | 1008.3 |
| 20260505085628 | 59 | 275 | 4.0 | 5.0 | 0.13 | 0.13 | 0.13 | 99 | 1008.1 |
| 20260505084629 | 59 | 248 | 3.0 | 3.0 | 0.11 | 0.11 | 0.11 | 99 | 1007.9 |
| 20260505083630 | 60 | 315 | 0.0 | 1.0 | 0.09 | 0.09 | 0.09 | 99 | 1007.9 |
| 20260505082632 | 60 | 225 | 1.0 | 2.0 | 0.05 | 0.05 | 0.05 | 99 | 1008.0 |
| 20260505081635 | 60 | 293 | 4.0 | 4.0 | 0.02 | 0.02 | 0.02 | 99 | 1008.0 |
| 20260505080636 | 61 | 291 | 4.0 | 5.0 | 0.01 | 0.01 | 0.01 | 95 | 1007.9 |
| 20260505075637 | 62 | 253 | 3.0 | 4.0 | 0.00 | 0.00 | 0.00 | 92 | 1007.6 |
| 20260505074619 | 63 | 277 | 2.0 | 3.0 | 0.00 | 0.00 | 0.00 | 88 | 1007.3 |
| 20260505073619 | 63 | 0.0 | 0.0 | 0.00 | 0.00 | 0.00 | 84 | 1007.5 | |
| 20260505072620 | 63 | 203 | 0.0 | 1.0 | 0.00 | 0.00 | 0.00 | 84 | 1007.2 |
| 20260505071616 | 63 | 176 | 2.0 | 4.0 | 0.00 | 0.00 | 0.00 | 83 | 1007.3 |
| 20260505070617 | 63 | 129 | 3.0 | 4.0 | 0.00 | 0.00 | 0.00 | 84 | 1007.7 |
| 20260505065618 | 63 | 153 | 3.0 | 4.0 | 0.00 | 0.00 | 0.00 | 84 | 1007.8 |
| 20260505064619 | 63 | 141 | 3.0 | 4.0 | 0.00 | 0.00 | 0.00 | 83 | 1007.9 |
| 20260505063640 | 63 | 169 | 3.0 | 5.0 | 0.00 | 0.00 | 0.00 | 84 | 1008.0 |
| 20260505062622 | 63 | 167 | 3.0 | 4.0 | 0.00 | 0.00 | 0.00 | 83 | 1008.2 |
| 20260505061623 | 63 | 177 | 3.0 | 4.0 | 0.00 | 0.00 | 0.00 | 84 | 1008.4 |
| 20260505060624 | 63 | 192 | 2.0 | 3.0 | 0.00 | 0.00 | 0.00 | 84 | 1008.3 |
| 20260505055646 | 63 | 146 | 3.0 | 4.0 | 0.00 | 0.00 | 0.00 | 84 | 1008.2 |
| 20260505054627 | 63 | 168 | 2.0 | 3.0 | 0.00 | 0.00 | 0.00 | 84 | 1008.0 |
| 20260505053628 | 63 | 135 | 4.0 | 8.0 | 0.00 | 0.00 | 0.00 | 84 | 1008.2 |
| 20260505052630 | 63 | 144 | 3.0 | 6.0 | 0.00 | 0.00 | 0.00 | 84 | 1008.2 |
| 20260505051643 | 62 | 129 | 3.0 | 4.0 | 0.00 | 0.00 | 0.00 | 85 | 1008.5 |
| 20260505050618 | 62 | 140 | 2.0 | 3.0 | 0.00 | 0.00 | 0.00 | 86 | 1008.4 |
| 20260505041620 | 63 | 147 | 3.0 | 3.0 | 0.00 | 0.00 | 0.00 | 83 | 1008.9 |
| 20260505040619 | 64 | 144 | 3.0 | 5.0 | 0.00 | 0.00 | 0.00 | 81 | 1009.2 |
| 20260505035621 | 64 | 142 | 2.0 | 3.0 | 0.00 | 0.00 | 0.00 | 81 | 1009.2 |
| 20260505034702 | 64 | 151 | 3.0 | 3.0 | 0.00 | 0.00 | 0.00 | 80 | 1009.2 |
| 20260505033643 | 65 | 144 | 2.0 | 3.0 | 0.00 | 0.00 | 0.00 | 79 | 1009.2 |
| 20260505032624 | 65 | 158 | 2.0 | 3.0 | 0.00 | 0.00 | 0.00 | 78 | 1009.4 |
| 20260505031625 | 66 | 130 | 4.0 | 5.0 | 0.00 | 0.00 | 0.00 | 77 | 1009.4 |
| 20260505030621 | 66 | 139 | 4.0 | 5.0 | 0.00 | 0.00 | 0.00 | 76 | 1009.2 |
| 20260505025616 | 66 | 141 | 3.0 | 4.0 | 0.00 | 0.00 | 0.00 | 76 | 1009.2 |
| 20260505024643 | 66 | 135 | 1.0 | 2.0 | 0.00 | 0.00 | 0.00 | 76 | 1009.1 |
| 20260505023624 | 66 | 139 | 3.0 | 4.0 | 0.00 | 0.00 | 0.00 | 75 | 1008.9 |
| 20260505022626 | 67 | 165 | 2.0 | 4.0 | 0.00 | 0.00 | 0.00 | 74 | 1008.7 |
| 20260505021647 | 67 | 162 | 1.0 | 2.0 | 0.00 | 0.00 | 0.00 | 73 | 1008.3 |
| 20260505020628 | 68 | 161 | 2.0 | 4.0 | 0.00 | 0.00 | 0.00 | 72 | 1008.2 |
| 20260505015649 | 68 | 143 | 3.0 | 5.0 | 0.00 | 0.00 | 0.00 | 72 | 1008.1 |
| 20260505014624 | 68 | 167 | 2.0 | 4.0 | 0.00 | 0.00 | 0.00 | 72 | 1008.0 |
| 20260505013642 | 68 | 161 | 2.0 | 4.0 | 0.00 | 0.00 | 0.00 | 72 | 1007.8 |
| 20260505012621 | 69 | 149 | 2.0 | 2.0 | 0.00 | 0.00 | 0.00 | 70 | 1007.8 |
| 20260505011623 | 70 | 146 | 2.0 | 3.0 | 0.00 | 0.00 | 0.00 | 68 | 1007.7 |
| 20260505010624 | 70 | 139 | 2.0 | 3.0 | 0.00 | 0.00 | 0.00 | 68 | 1007.5 |
| 20260505005619 | 71 | 139 | 1.0 | 2.0 | 0.00 | 0.00 | 0.00 | 65 | 1007.3 |
| 20260505004640 | 72 | 140 | 2.0 | 3.0 | 0.00 | 0.00 | 0.00 | 63 | 1007.2 |
| 20260505003621 | 73 | 128 | 3.0 | 4.0 | 0.00 | 0.00 | 0.00 | 61 | 1007.2 |
| 20260505002622 | 75 | 198 | 2.0 | 4.0 | 0.00 | 0.00 | 0.00 | 58 | 1007.0 |
| 20260505001624 | 76 | 148 | 2.0 | 3.0 | 0.00 | 0.00 | 0.00 | 57 | 1006.9 |
| 20260505000625 | 77 | 148 | 2.0 | 4.0 | 0.00 | 0.00 | 0.00 | 55 | 1006.9 |
| 20260504235626 | 79 | 105 | 1.0 | 2.0 | 0.00 | 0.00 | 0.00 | 53 | 1007.0 |
| 20260504234627 | 80 | 231 | 2.0 | 4.0 | 0.00 | 0.00 | 0.00 | 49 | 1007.1 |
| 20260504233708 | 80 | 212 | 4.0 | 7.0 | 0.00 | 0.00 | 0.00 | 50 | 1007.2 |
| 20260504232629 | 81 | 213 | 3.0 | 6.0 | 0.00 | 0.00 | 0.00 | 48 | 1007.3 |
| 20260504231630 | 84 | 203 | 3.0 | 6.0 | 0.00 | 0.00 | 0.00 | 47 | 1007.2 |
| 20260504230624 | 83 | 134 | 3.0 | 6.0 | 0.00 | 0.00 | 0.00 | 47 | 1007.3 |
| 20260504225619 | 83 | 249 | 5.0 | 7.0 | 0.00 | 0.00 | 0.00 | 44 | 1007.3 |
| 20260504224615 | 83 | 211 | 5.0 | 7.0 | 0.00 | 0.00 | 0.00 | 44 | 1007.4 |
| 20260504223616 | 82 | 198 | 5.0 | 8.0 | 0.00 | 0.00 | 0.00 | 46 | 1007.5 |
| 20260504222637 | 82 | 225 | 4.0 | 7.0 | 0.00 | 0.00 | 0.00 | 47 | 1007.5 |
| 20260504221618 | 82 | 166 | 3.0 | 4.0 | 0.00 | 0.00 | 0.00 | 48 | 1007.6 |
| 20260504220619 | 82 | 132 | 3.0 | 5.0 | 0.00 | 0.00 | 0.00 | 48 | 1007.5 |
| 20260504215621 | 82 | 125 | 3.0 | 6.0 | 0.00 | 0.00 | 0.00 | 49 | 1007.6 |
| 20260504214622 | 83 | 185 | 6.0 | 11.0 | 0.00 | 0.00 | 0.00 | 48 | 1007.6 |
| 20260504213623 | 83 | 157 | 4.0 | 5.0 | 0.00 | 0.00 | 0.00 | 48 | 1007.6 |
| 20260504212646 | 81 | 179 | 5.0 | 10.0 | 0.00 | 0.00 | 0.00 | 51 | 1007.7 |
| 20260504211627 | 84 | 212 | 6.0 | 10.0 | 0.00 | 0.00 | 0.00 | 48 | 1007.9 |
| 20260504210627 | 83 | 265 | 6.0 | 9.0 | 0.00 | 0.00 | 0.00 | 46 | 1008.0 |
| 20260504205622 | 83 | 258 | 5.0 | 7.0 | 0.00 | 0.00 | 0.00 | 49 | 1008.1 |
| 20260504204617 | 83 | 242 | 5.0 | 7.0 | 0.00 | 0.00 | 0.00 | 46 | 1008.2 |
| 20260504203630 | 83 | 245 | 7.0 | 12.0 | 0.00 | 0.00 | 0.00 | 48 | 1008.4 |
| 20260504202631 | 83 | 249 | 6.0 | 9.0 | 0.00 | 0.00 | 0.00 | 48 | 1008.5 |
| 20260504201647 | 83 | 142 | 5.0 | 6.0 | 0.00 | 0.00 | 0.00 | 49 | 1008.5 |
| 20260504200628 | 83 | 178 | 5.0 | 6.0 | 0.00 | 0.00 | 0.00 | 49 | 1008.7 |
| 20260504195628 | 82 | 225 | 7.0 | 10.0 | 0.00 | 0.00 | 0.00 | 48 | 1008.7 |
| 20260504194650 | 83 | 260 | 8.0 | 10.0 | 0.00 | 0.00 | 0.00 | 48 | 1008.7 |
| 20260504193631 | 83 | 260 | 5.0 | 8.0 | 0.00 | 0.00 | 0.00 | 49 | 1008.9 |
| 20260504192632 | 83 | 169 | 4.0 | 6.0 | 0.00 | 0.00 | 0.00 | 51 | 1009.1 |
| 20260504191615 | 82 | 231 | 8.0 | 12.0 | 0.00 | 0.00 | 0.00 | 48 | 1009.1 |
| 20260504190657 | 82 | 299 | 6.0 | 9.0 | 0.00 | 0.00 | 0.00 | 49 | 1009.2 |
| 20260504185638 | 82 | 271 | 5.0 | 7.0 | 0.00 | 0.00 | 0.00 | 49 | 1009.2 |
| 20260504184619 | 82 | 259 | 8.0 | 11.0 | 0.00 | 0.00 | 0.00 | 50 | 1009.2 |
| 20260504183632 | 82 | 300 | 5.0 | 7.0 | 0.00 | 0.00 | 0.00 | 51 | 1009.4 |
| 20260504182616 | 82 | 188 | 4.0 | 10.0 | 0.00 | 0.00 | 0.00 | 52 | 1009.4 |
| 20260504181631 | 82 | 207 | 6.0 | 11.0 | 0.00 | 0.00 | 0.00 | 51 | 1009.4 |
| 20260504180631 | 82 | 213 | 5.0 | 7.0 | 0.00 | 0.00 | 0.00 | 52 | 1009.4 |
| 20260504175632 | 82 | 231 | 5.0 | 7.0 | 0.00 | 0.00 | 0.00 | 51 | 1009.5 |
| 20260504174615 | 81 | 217 | 6.0 | 9.0 | 0.00 | 0.00 | 0.00 | 51 | 1009.6 |
| 20260504173617 | 80 | 241 | 6.0 | 8.0 | 0.00 | 0.00 | 0.00 | 49 | 1009.8 |
| 20260504172617 | 81 | 236 | 5.0 | 7.0 | 0.00 | 0.00 | 0.00 | 51 | 1009.8 |
| 20260504171639 | 80 | 274 | 6.0 | 8.0 | 0.00 | 0.00 | 0.00 | 50 | 1009.9 |
| 20260504170620 | 80 | 271 | 5.0 | 7.0 | 0.00 | 0.00 | 0.00 | 50 | 1010.2 |
| 20260504150616 | 74 | 248 | 6.0 | 12.0 | 0.00 | 0.00 | 0.00 | 54 | 1011.3 |
| 20260504140623 | 72 | 201 | 3.0 | 4.0 | 0.00 | 0.00 | 0.00 | 59 | 1012.0 |
| 20260504130630 | 66 | 182 | 1.0 | 3.0 | 0.00 | 0.00 | 0.00 | 71 | 1012.3 |